Terminal Aerodrome Forecast
Issued by NWS

Home | Current Version | Previous Version | Text Only | Print | Product List | Glossary On
Versions: 1 2 3 4 5 6 7 8 9 10 11 12 13 14 15 16 17 18 19 20
000
FTUS42 KFFC 310500
TAFFTY
TAF
KFTY 310525Z 3106/0106 00000KT P6SM SCT200
     FM311600 08004KT P6SM SCT040 SCT200
     FM311800 06006KT P6SM BKN050
     FM010000 07005KT P6SM BKN150=

USA.gov is the U.S. government's official web portal to all federal, state and local government web resources and services.